Miscellaneous Local Product
Issued by NWS North Platte, NE

Home | Current Version | Previous Version | Graphics & Text | Print | Product List | Glossary On
Versions: 1 2 3 4 5 6 7 8 9 10 11 12 13 14 15 16 17 18 19 20 21 22 23 24 25 26 27 28 29 30 31 32 33 34 35 36 37 38 39 40 41 42 43 44 45 46 47 48 49 50
000
AXUS43 KLBF 300110
MISLBF


WESTERN AND NORTH CENTRAL NEBRASKA HOURLY WEATHER ROUNDUP
NATIONAL WEATHER SERVICE NORTH PLATTE NE
800 PM CDT MON MAY 29 2017

NOTE: "FAIR" INDICATES FEW OR NO CLOUDS BELOW 12,000 FEET WITH NO
SIGNIFICANT WEATHER AND/OR OBSTRUCTIONS TO VISIBILITY.

NOTE: STATIONS NOT REPORTING VARIABLES SUCH AS SKY/WEATHER OR
PRESSURE ARE PROVIDED BY RAWS AND APRS NETWORKS AND ARE NOT UNDER
NATIONAL WEATHER SERVICE QUALITY CONTROL.

...OBSERVATIONS IN AND NEAR THE EASTERN PANHANDLE OF NEBRASKA...

CITY           SKY/WX    TMP DP  RH WIND       PRES   REMARKS
PINE RIDGE     SUNNY     67  35  30 N7        30.10S
GORDON         FAIR      64  35  33 N6        30.10S
CHADRON        SUNNY     65  40  39 E8        30.09S
ALLIANCE       SUNNY     66  30  26 N13G24    30.10S
SIDNEY         SUNNY     67  36  31 N10       30.14S
CRESCENT LAKE    N/A     67  31  26 N13G20      N/A
$$

...OBSERVATIONS IN NORTHERN NEBRASKA AND FAR SOUTHERN SOUTH DAKOTA...

CITY           SKY/WX    TMP DP  RH WIND       PRES   REMARKS
WINNER         PTSUNNY   66  38  35 NW10      30.03S
VALENTINE      SUNNY     68  31  25 N14       30.06S
THEDFORD       SUNNY     68  36  30 N10       30.07S
AINSWORTH      SUNNY     65  36  33 NW13      30.06S
O`NEILL        PTCLDY    65  34  31 NW8       30.04S
ORD            CLEAR     67  34  29 NW13      30.03F
BROKEN BOW     CLEAR     70  34  26 N10       30.05F
VALENTINE NWR    N/A     67  33  28 NW13G25     N/A
HALSEY           N/A     70  31  23 NW8G16      N/A
BUTTE            N/A     65  39  39 NW9         N/A
CHAMBERS         N/A     69  39  33 N6          N/A
EWING            N/A     66  43  43 N5          N/A
$$

...OBSERVATIONS IN SOUTHWEST NEBRASKA AND FAR NORTHEAST COLORADO...

CITY           SKY/WX    TMP DP  RH WIND       PRES   REMARKS
WRAY           FAIR      70  36  28 NW7       30.12R
IMPERIAL       MOSUNNY   71  34  25 NW9       30.08S
OGALLALA       SUNNY     72  36  27 N10       30.09R
NORTH PLATTE   SUNNY     70  38  31 NE7       30.06S
MCCOOK         MOSUNNY   75  39  27 N12       30.05S
LEXINGTON      CLEAR     72  31  22 N12       30.06S
STAPLETON        N/A     67  38  34 CALM        N/A
GOTHENBURG       N/A     72  29  20 N9          N/A
CALLAWAY         N/A     71  34  26 N9          N/A
$$

...OBSERVATIONS IN CENTRAL LINCOLN COUNTY AREA...

CITY           SKY/WX    TMP DP  RH WIND       PRES   REMARKS
N.P. AIRPORT   SUNNY     70  38  31 NE7       30.06S
N.P. DOWNTOWN    N/A     72  39  30 N3          N/A
N.P. SOUTHEAST   N/A     72  37  28 CALM        N/A
N.P. HILLCREST   N/A     70  37  29 N7          N/A
$$

...SOME OBSERVATIONS FROM AROUND THE REGION...

CITY           SKY/WX    TMP DP  RH WIND       PRES   REMARKS
DENVER         CLOUDY    62  45  53 S8        30.20F
LIMON          CLOUDY    51  48  89 CALM      30.21R
ASPEN          CLOUDY    65  24  21 N12       30.21S
LARAMIE        CLOUDY    57  32  38 N7        30.25R
CASPER         SUNNY     64  41  42 N9        30.19S
CHEYENNE       SUNNY     60  39  45 CALM      30.21S
SCOTTSBLUFF    SUNNY     70  31  23 N14       30.12S
GRAND ISLAND   CLEAR     69  38  32 N13       30.05S
OMAHA          PTCLDY    70  41  34 NW16      29.99R
SIOUX FALLS    PTCLDY    63  44  50 NW16      29.98S
PIERRE         SUNNY     67  31  26 N15       30.00R
RAPID CITY     SUNNY     66  28  24 N22G29    30.08S
BISMARCK       PTSUNNY   63  36  36 NW15      29.99F
KANSAS CITY    PTCLDY    75  49  39 W5        29.98S
HILL CITY      CLEAR     77  42  28 CALM      30.06S
WICHITA        CLEAR     80  49  33 N13       30.00R
DODGE CITY     CLEAR     76  42  29 NE7       30.07S
OKLAHOMA CITY  PTCLDY    80  50  34 S6        29.98S
DALLAS         PTCLDY    83  53  35 E9        29.98R
AMARILLO       PTCLDY    75  39  27 E9        30.09S
$$




USA.gov is the U.S. government's official web portal to all federal, state and local government web resources and services.